This is the latest recevied weather packets stored in our database for station/object XE2KK-10. If no packets are shown the sender has not sent any weather packets the latest 10 day(s).
| Time | Temp. | Humidity | Pressure | Rain* | Wind** | Luminosity | Snow |
|---|---|---|---|---|---|---|---|
| 1778017153 | 40° C | 18% | 1004.2 hPa | 0 mm | - | 560 W/m² | - |
| 1778016853 | 40.56° C | 18% | 1004.4 hPa | 0 mm | - | 514 W/m² | - |
| 1778016553 | 39.44° C | 18% | 1004.5 hPa | 0 mm | - | 615 W/m² | - |
| 1778016253 | 39.44° C | 19% | 1004.4 hPa | 0 mm | - | 609 W/m² | - |
| 1778015952 | 40° C | 20% | 1004.4 hPa | 0 mm | - | 549 W/m² | - |
| 1778015652 | 40° C | 19% | 1004.6 hPa | 0 mm | - | 604 W/m² | - |
| 1778015353 | 40° C | 19% | 1005 hPa | 0 mm | - | 592 W/m² | - |
| 1778015053 | 39.44° C | 21% | 1004.7 hPa | 0 mm | - | 593 W/m² | - |
| 1778014753 | 39.44° C | 21% | 1004.9 hPa | 0 mm | - | 608 W/m² | - |
| 1778014453 | 38.89° C | 21% | 1005.1 hPa | 0 mm | - | 605 W/m² | - |
| 1778014152 | 38.89° C | 21% | 1005.3 hPa | 0 mm | - | 645 W/m² | - |
| 1778013852 | 38.89° C | 21% | 1005.7 hPa | 0 mm | - | 708 W/m² | - |
| 1778013553 | 38.89° C | 23% | 1005.5 hPa | 0 mm | - | 717 W/m² | - |
| 1778013253 | 38.33° C | 23% | 1005.7 hPa | 0 mm | - | 719 W/m² | - |
| 1778012953 | 38.33° C | 23% | 1005.6 hPa | 0 mm | - | 764 W/m² | - |
| 1778012653 | 38.33° C | 24% | 1005.7 hPa | 0 mm | - | 782 W/m² | - |
| 1778012352 | 38.33° C | 24% | 1005.9 hPa | 0 mm | - | 772 W/m² | - |
| 1778012052 | 38.33° C | 24% | 1005.9 hPa | 0 mm | - | 757 W/m² | - |
| 1778011753 | 37.78° C | 25% | 1006 hPa | 0 mm | - | 755 W/m² | - |
| 1778011453 | 38.33° C | 25% | 1006.3 hPa | 0 mm | - | 780 W/m² | - |
| 1778011153 | 37.78° C | 26% | 1006.3 hPa | 0 mm | - | 756 W/m² | - |
| 1778010853 | 37.22° C | 27% | 1006.5 hPa | 0 mm | - | 817 W/m² | - |
| 1778010552 | 37.22° C | 27% | 1006.6 hPa | 0 mm | - | 687 W/m² | - |
| 1778010252 | 37.22° C | 27% | 1006.3 hPa | 0 mm | - | 767 W/m² | - |
| 1778009953 | 36.67° C | 28% | 1006.6 hPa | 0 mm | - | 809 W/m² | - |
* Rain latest hour (hover to see other rain measurements)
** Current wind speed in m/s (hover to see current wind gust speed)